378  
ASUS45 KABQ 181710  
RWRNM  
NEW MEXICO REGIONAL WEATHER ROUNDUP  
NATIONAL WEATHER SERVICE ALBUQUERQUE NM  
1000 AM MST THU JAN 18 2018  
 
NOTE: "FAIR" MEANS FEW OR NO CLOUDS BELOW 12,000 FEET AGL WITH NO  
SIGNIFICANT WEATHER OR S TO VISION.  
 
THIS PRODUCT IS RELEASED AS TWO VERSIONS. ONE VERSION NEAR  
THE TOP OF THE HOUR CONTAINING PRELIMINARY DATA FROM ALBUQUERQUE  
AND OTHER STATIONS. A FINAL VERSION WITH ADDITIONAL DATA IS  
ISSUED ABOUT 10 MINUTES AFTER THE HOUR.  
 
NMZ501-503-504-510>518-181800-  
NORTHWEST PLATEAU/NORTHCENTRAL MOUNTAINS  
 
CITY SKY/WX TMP DP RH WIND PRES REMARKS
 
FARMINGTON FAIR 26 16 65 E8 30.35R WCI 18  
LOS ALAMOS FAIR 31 13 47 N3 30.32R  
SANTA FE FAIR 32 8 36 N18G24 30.30R WCI 20  
TAOS FAIR 31 7 36 CALM 30.36R  
ANGEL FIRE FAIR 24 3 41 CALM 30.32S  
 

 
NMZ402-403-502-505>509-181800-  
WESTCENTRAL MOUNTAINS/SOUTHWEST MOUNTAINS  
 
CITY SKY/WX TMP DP RH WIND PRES REMARKS
 
GALLUP FAIR 32 17 54 CALM 30.35R  
GRANTS FAIR 29 13 53 NW10 30.37R WCI 19  
SILVER CITY FAIR 41 17 37 CALM 30.32R  
 

 
NMZ407-409-411-412-181800-  
SOUTHERN DESERTS  
 
CITY SKY/WX TMP DP RH WIND PRES REMARKS
 
DEMING FAIR 38 15 39 W3 30.34R  
LAS CRUCES FAIR 41 13 32 E3 30.33R  
HOLLOMAN AFB FAIR 35 10 35 SE3 30.35R  
ALAMOGORDO FAIR 34 9 35 SW3 30.33R  
T OR C FAIR 38 14 37 SE7 30.30S WCI 33  
 

 
NMZ519>523-181800-  
CENTRAL VALLEYS/CENTRAL HIGHLANDS  
 
CITY SKY/WX TMP DP RH WIND PRES REMARKS
 
ALBUQUERQUE FAIR 32 15 49 N7 30.35R WCI 26  
DOUBLE EAGLE MOSUNNY 37 18 44 E3 30.33  
MORIARTY ARPT FAIR 40 16 37 N8 30.30R WCI 35  
CLINES CORNERS FAIR 39 10 30 NW21 30.26R WCI 29  
BELEN FAIR 34 13 41 NW5 30.36R WCI 30  
SOCORRO FAIR 32 13 45 N9 30.34R WCI 24  
 

 
NMZ524>526-539-540-181800-  
SOUTHCENTRAL MOUNTAINS  
 
CITY SKY/WX TMP DP RH WIND PRES REMARKS
 
RUIDOSO FAIR 46 -2 13 NW9 30.28R  
 

 
NMZ527>531-181800-  
NORTHEAST HIGHLANDS/NORTHEAST PLAINS  
 
CITY SKY/WX TMP DP RH WIND PRES REMARKS
 
LAS VEGAS FAIR 45 7 21 VRB3 30.22R  
RATON FAIR 36 7 29 NE6 30.20R WCI 31  
CLAYTON FAIR 53 -1 11 SW9 30.17R  
 

 
NMZ532>537-181800-  
EASTCENTRAL PLAINS  
 
CITY SKY/WX TMP DP RH WIND PRES REMARKS
 
TUCUMCARI FAIR 40 12 32 W15 30.21R WCI 32  
CANNON AFB FAIR 32 4 30 W10 30.24F WCI 24  
CLOVIS AIRPORT FAIR 35 6 29 W12 30.24F WCI 27  
 

 
NMZ028-029-538-181800-  
SOUTHEAST PLAINS  
 
CITY SKY/WX TMP DP RH WIND PRES REMARKS
 
ROSWELL FAIR 29 4 34 VRB3 30.29S  
ARTESIA FAIR 30 1 29 S5 30.31F WCI 25  
CARLSBAD FAIR 32 6 33 S7 30.31F WCI 26  
HOBBS SUNNY 34 5 29 S5 30.31F WCI 30  
 

 
 
 
CLICK HERE TO GO TO PREVIOUS BULLETINS.

The Nexlab NM Page Main Text Page